Regional Weather Roundup
Issued by NWS

Home | Current Version | Previous Version | Graphics & Text | Print | Product List | Glossary On
Versions: 1 2 3 4 5 6 7 8 9 10 11 12 13 14 15 16 17 18 19 20 21 22 23 24 25 26 27 28 29 30 31 32 33 34 35 36 37 38 39 40 41 42 43 44 45 46 47 48 49 50
000
ASUS45 KABQ 250310
RWRNM
NEW MEXICO REGIONAL WEATHER ROUNDUP
NATIONAL WEATHER SERVICE ALBUQUERQUE NM
900 PM MDT SUN JUL 24 2016

NOTE: "FAIR" MEANS FEW OR NO CLOUDS BELOW 12,000 FEET AGL WITH NO
       SIGNIFICANT WEATHER OR OBSTRUCTIONS TO VISION.

      THIS PRODUCT IS RELEASED AS TWO VERSIONS.  ONE VERSION NEAR
      THE TOP OF THE HOUR CONTAINING PRELIMINARY DATA FROM ALBUQUERQUE
      AND OTHER STATIONS.  A FINAL VERSION WITH ADDITIONAL DATA IS
      ISSUED ABOUT 10 MINUTES AFTER THE HOUR.

NMZ501-503-504-510>518-250400-
NORTHWEST PLATEAU/NORTHCENTRAL MOUNTAINS

CITY           SKY/WX    TMP DP  RH WIND       PRES   REMARKS
FARMINGTON     FAIR      84  43  23 E12       30.14R
LOS ALAMOS     CLOUDY    70  46  42 CALM      30.38R
SANTA FE       FAIR      72  52  49 NW13      30.30R
TAOS           FAIR      72  39  30 SW17G23   30.36R
ANGEL FIRE     CLOUDY    61  49  65 S14       30.47R

$$
NMZ402-403-502-505>509-250400-
WESTCENTRAL MOUNTAINS/SOUTHWEST MOUNTAINS

CITY           SKY/WX    TMP DP  RH WIND       PRES   REMARKS
GALLUP         FAIR      73  49  42 S13       30.28R
GRANTS         FAIR      72  49  44 S8G16     30.31R
SILVER CITY    FAIR      81  46  29 N20G25    30.12S

$$
NMZ407-409-411-412-250400-
SOUTHERN DESERTS

CITY           SKY/WX    TMP DP  RH WIND       PRES   REMARKS
LORDSBURG      FAIR      88  45  22 NW13      30.01R
DEMING         FAIR      89  47  23 NE22G31   30.01R HAZE
LAS CRUCES     MOCLDY    80  49  34 E22G41    30.03R
HOLLOMAN AFB   FAIR      91  48  22 VRB5      29.97R
ALAMOGORDO     FAIR      88  46  23 E7        29.98R
T OR C         FAIR      86  45  23 NE9       30.08R

$$
NMZ519>523-250400-
CENTRAL VALLEYS/CENTRAL HIGHLANDS

CITY           SKY/WX    TMP DP  RH WIND       PRES   REMARKS
ALBUQUERQUE    MOCLDY    78  52  40 N17       30.20R
DOUBLE EAGLE   PTCLDY    73  52  46 N13G22    30.23R
MORIARTY ARPT  CLOUDY    68  53  58 NE10      30.29R
CLINES CORNERS MOCLDY    64  53  67 NE12      30.35R
BELEN          DRIZZLE   76  56  50 CALM      30.23R
SOCORRO        CLOUDY    83  48  30 N7        30.14R

$$
NMZ524>526-539-540-250400-
SOUTHCENTRAL MOUNTAINS

CITY           SKY/WX    TMP DP  RH WIND       PRES   REMARKS
RUIDOSO          N/A     77  39  25 E10       30.30R

$$
NMZ527>531-250400-
NORTHEAST HIGHLANDS/NORTHEAST PLAINS

CITY           SKY/WX    TMP DP  RH WIND       PRES   REMARKS
LAS VEGAS      LGT RAIN  68  48  48 SW9G35    30.35R
RATON          FAIR      63  58  83 SE3       30.31R
CLAYTON        MOCLDY    70  64  81 SE6       30.22R

$$
NMZ532>537-250400-
EASTCENTRAL PLAINS

CITY           SKY/WX    TMP DP  RH WIND       PRES   REMARKS
TUCUMCARI      FAIR      76  60  57 N14       30.14R
CANNON AFB     FAIR      81  51  35 E7        30.11R
CLOVIS AIRPORT FAIR      79  52  38 E8        30.11R

$$
NMZ028-029-538-250400-
SOUTHEAST PLAINS

CITY           SKY/WX    TMP DP  RH WIND       PRES   REMARKS
ROSWELL        FAIR      89  47  23 SE8       30.00R
ARTESIA        FAIR      93  52  24 E9        29.98R
CARLSBAD       FAIR      90  51  26 E9        29.95R
HOBBS          FAIR      86  50  28 E7        30.04R


$$



USA.gov is the U.S. government's official web portal to all federal, state and local government web resources and services.